Location: Windsor
(43.2292°N, 89.3015°W)
Time: 10:14:23
(UTC+00:00)

Tiros 1 - Pass Details

Date: 04 June 2022
Orbit: 629 x 663 km, 48.4° (Epoch: 04 July)

Event Time Altitude Azimuth Distance (km) Brightness Sun altitude
Rises 07:49:00 0° 294° (WNW) 2,919 10.5 -19.3°
Reaches altitude 10° 07:51:20 10° 296° (WNW) 2,013 9.7 -19.1°
Maximum altitude 07:55:57 71° 21° (NNE) 672 7.3 -18.7°
Drops below altitude 10° 08:00:36 10° 106° (ESE) 2,024 9.9 -18.3°
Sets 08:02:57 0° 108° (ESE) 2,937 10.7 -18.1°
